GFSSE_925_temp_108.txt.gz
Temp
27 25 24 24 24 24 24 24 24 24 24 24 24 24 24 23 22 22 21 21 21 21 20 20 20 20 21 21 21 21 21 20 21 20 20 20 20 19 19 19 20 20 19
27 23 24 24 24 23 24 24 24 24 24 23 24 24 23 23 22 22 22 21 21 21 20 20 21 20 21 21 21 20 20 20 20 20 20 19 19 20 20 20 20 19 19
26 23 24 24 24 24 24 24 24 24 23 23 23 23 23 22 22 22 21 21 21 21 20 21 21 21 21 21 21 20 20 20 20 20 20 20 19 19 19 20 20 19 19
25 24 22 24 24 24 24 24 24 23 23 23 23 23 23 22 22 22 21 21 20 20 21 21 21 20 21 21 21 21 20 20 20 20 21 21 21 19 19 19 19 19 19
25 24 23 24 24 24 24 24 24 23 23 23 23 23 23 22 22 22 21 21 20 20 21 21 21 20 21 21 21 20 20 20 20 20 23 23 22 19 18 19 19 19 19
25 25 22 24 24 24 24 24 23 23 23 23 23 23 22 22 22 22 21 21 21 21 21 20 20 20 20 21 20 20 20 20 20 22 23 22 21 19 19 19 18 18 18
25 24 21 24 24 24 24 23 23 23 23 23 23 23 22 22 22 22 21 21 21 20 20 20 20 20 20 20 20 20 20 20 20 23 23 21 21 19 18 18 18 18 18
24 23 21 21 23 23 23 23 23 22 22 23 23 23 22 22 22 21 21 21 21 20 20 20 20 20 20 20 20 20 20 20 20 23 22 20 19 19 18 18 18 18 18
22 22 22 20 21 22 22 22 22 22 22 22 22 22 22 21 21 21 21 21 20 20 20 20 20 20 20 20 19 20 19 19 21 22 22 21 19 18 18 18 18 18 18
21 21 21 21 19 20 20 21 22 21 22 22 22 22 21 21 21 21 21 20 20 20 20 20 20 20 19 19 19 19 19 19 20 22 21 22 19 18 17 17 18 18 17
20 20 20 19 19 19 20 20 21 21 21 21 21 21 21 20 20 20 20 20 20 20 20 20 19 19 19 19 19 19 19 20 21 21 21 20 19 18 17 18 17 17 17
23 20 19 19 19 18 19 20 19 20 19 19 20 20 20 21 21 21 21 19 20 20 20 20 19 19 19 20 18 18 19 21 21 20 19 19 19 18 18 18 17 17 17
25 23 20 18 19 19 18 20 20 19 20 21 20 21 21 21 21 20 21 19 19 19 19 19 18 18 20 21 20 19 20 19 20 18 18 18 18 18 18 17 18 17 17
25 24 22 20 19 18 18 20 21 21 19 19 19 20 21 21 21 21 22 21 20 20 20 20 20 20 20 20 20 19 19 19 19 19 18 19 19 18 17 17 17 17 17
26 25 23 21 20 19 17 21 21 21 20 19 19 20 20 19 20 21 22 22 21 20 20 20 20 20 19 19 19 18 18 18 17 17 17 19 19 18 17 16 16 16 16
26 25 24 22 21 20 20 20 21 21 21 20 20 21 19 20 19 18 21 20 21 21 20 20 20 20 20 19 18 18 19 17 17 18 17 18 18 18 17 16 16 15 16
24 24 23 23 22 20 20 20 21 22 21 21 21 20 20 20 20 18 18 18 19 21 20 19 19 19 19 18 18 18 18 17 17 17 16 17 18 18 18 15 15 16 15
22 22 21 21 22 22 21 21 21 21 21 21 21 21 20 20 20 18 18 17 17 19 19 19 18 18 18 18 18 18 18 17 17 16 16 17 17 16 14 16 15 14 15
20 19 19 19 19 21 22 21 21 21 21 21 21 20 19 19 19 17 17 17 17 17 18 18 17 17 17 17 18 17 17 17 17 15 16 16 16 15 14 14 15 15 15
17 17 17 18 17 18 20 21 21 21 20 21 21 21 19 18 17 17 17 17 17 17 17 17 16 16 17 16 16 17 16 16 16 16 15 15 15 14 14 14 15 15 15
16 16 16 16 16 17 19 21 21 19 19 21 21 20 19 18 17 17 17 17 16 16 16 16 16 16 16 16 15 15 15 16 15 15 15 15 15 14 14 14 14 14 14
15 15 14 15 15 15 17 19 22 22 20 20 20 19 18 17 16 16 17 16 16 16 16 16 16 15 15 15 15 15 15 14 15 15 15 14 15 15 14 14 15 14 15
14 13 13 13 13 13 14 15 18 21 21 21 19 18 17 16 16 16 16 16 16 16 16 16 15 15 15 15 15 16 14 15 14 14 15 15 15 15 14 15 14 14 14
13 12 12 12 11 12 12 14 16 19 22 21 21 19 18 16 17 16 16 16 16 16 16 16 15 16 16 15 15 15 16 16 18 17 14 15 15 15 14 15 14 14 14
12 11 10 10 10 10 10 11 12 16 20 22 21 20 18 16 16 16 16 16 16 16 16 16 15 16 17 17 15 14 15 14 15 17 19 16 14 15 15 14 14 14 14
10 9 9 8 8 8 8 8 10 11 15 20 21 20 18 16 16 16 16 16 16 16 15 15 16 16 16 17 17 17 16 14 15 15 17 18 18 16 14 13 13 13 13

GFSSE_925_temp_114.txt.gz
Temp
27 28 26 26 26 26 26 26 25 25 25 25 25 25 25 24 24 24 23 23 23 22 21 21 21 21 21 21 22 22 23 22 22 21 21 21 21 21 20 20 20 19 19
28 28 27 26 25 25 25 25 25 25 24 24 24 24 24 24 24 23 23 22 22 22 21 21 21 21 22 22 22 22 22 22 21 21 21 21 20 20 20 20 20 20 19
27 27 27 26 25 25 25 25 25 25 24 24 24 24 24 24 23 23 22 22 21 21 21 21 21 21 21 21 21 21 21 21 21 21 21 20 20 20 20 20 19 20 19
27 26 25 25 25 24 25 25 25 25 24 24 24 24 23 23 23 23 22 21 21 21 21 20 20 20 20 20 20 21 21 21 21 21 21 20 20 20 19 20 19 20 19
29 25 23 24 24 24 24 25 25 25 24 24 23 23 23 23 23 22 22 21 21 21 21 20 20 20 20 20 20 21 20 20 21 21 21 22 21 20 20 19 19 19 19
29 27 25 24 23 23 24 24 24 24 24 24 23 23 23 23 23 22 22 21 21 21 20 21 20 20 20 20 20 20 20 20 20 20 21 22 21 21 20 19 19 19 19
28 27 25 25 23 23 23 24 24 24 24 23 23 23 23 23 22 22 21 21 21 21 20 20 20 20 20 20 20 20 20 20 20 20 20 18 20 21 20 19 19 19 19
27 25 25 24 24 22 22 23 23 23 23 23 23 23 23 23 22 22 22 21 21 21 20 20 20 20 20 20 20 20 20 20 20 21 21 19 19 21 20 19 19 19 18
27 25 24 23 23 22 22 22 23 23 23 23 22 22 22 22 22 22 22 21 21 21 20 20 20 20 20 20 20 20 20 20 20 21 20 19 20 21 20 19 19 19 18
25 26 23 23 22 22 22 22 22 22 22 22 22 22 22 22 21 22 21 21 21 21 21 20 20 20 20 20 20 20 20 20 20 21 21 21 20 20 20 19 18 18 18
25 25 24 22 21 21 21 21 21 22 22 22 22 22 21 21 21 21 21 21 21 21 20 20 20 20 19 19 19 19 19 20 20 21 21 21 20 20 20 19 19 18 18
25 24 24 23 22 21 21 21 21 21 21 21 21 21 21 20 20 20 21 20 20 20 20 20 19 19 19 19 19 20 19 19 20 21 21 19 20 21 19 19 19 19 18
29 25 24 23 22 22 22 21 21 20 20 20 20 20 21 21 21 22 21 21 21 20 20 20 19 19 19 19 20 20 20 20 20 21 20 20 19 20 19 19 18 18 18
29 26 23 23 22 21 22 22 21 21 21 21 21 21 21 21 22 22 23 22 21 20 20 20 20 20 20 20 21 20 20 20 20 21 20 20 19 19 19 19 18 18 18
28 27 24 22 21 21 20 22 23 23 22 22 21 21 21 22 22 22 23 22 21 21 21 21 21 21 21 21 21 20 20 20 20 20 19 20 19 19 19 18 18 18 17
27 27 25 24 22 22 21 22 23 24 23 23 23 22 22 22 23 23 23 23 22 21 21 21 21 21 21 21 21 21 20 20 19 19 19 19 19 19 19 18 18 18 17
26 25 24 24 24 21 22 22 22 22 23 23 22 23 22 22 23 23 23 23 24 22 22 22 22 22 21 21 20 20 20 19 18 18 18 18 18 19 19 18 18 17 17
24 22 22 22 21 22 22 22 22 22 22 23 23 22 22 22 22 22 23 23 23 24 22 22 22 21 21 21 20 19 19 19 19 18 18 18 17 18 18 18 18 17 17
22 21 21 20 20 20 20 21 21 22 22 23 23 23 22 22 22 22 21 22 22 22 23 21 21 21 21 20 20 20 19 19 19 19 18 17 17 17 17 17 17 17 16
20 20 19 19 18 18 19 19 21 21 22 23 23 23 23 23 22 22 22 21 21 20 21 21 21 21 21 20 20 20 20 19 19 18 18 17 17 17 16 16 17 17 16
19 19 18 18 18 17 18 18 19 21 22 23 23 23 23 23 22 22 22 21 20 20 19 20 21 20 20 20 20 20 19 19 18 18 18 17 17 16 15 16 16 16 16
18 17 16 16 16 16 16 16 16 17 18 19 20 21 23 23 23 22 22 21 19 18 19 18 19 19 19 19 19 18 17 17 17 17 17 17 17 16 16 16 15 15 15
17 16 15 15 14 14 14 14 15 16 17 18 20 21 22 23 23 22 21 21 20 19 18 18 18 18 18 18 19 17 16 16 16 17 16 17 16 16 16 16 16 15 15
16 15 14 13 13 13 12 12 12 13 14 15 16 17 18 21 23 22 21 20 20 18 18 17 18 18 18 18 18 18 19 19 16 16 17 17 17 16 16 16 15 15 15
15 14 13 12 12 11 10 10 10 10 10 11 11 13 14 16 19 22 21 19 19 18 18 17 17 17 17 18 17 17 17 18 19 17 16 16 16 16 16 16 16 15 15
14 12 11 11 10 9 8 8 8 8 8 8 9 10 11 14 16 20 21 20 19 18 18 17 17 17 17 17 17 17 18 17 17 17 16 16 16 17 17 16 16 15 15

GFSSE_925_temp_117.txt.gz
Temp
25 26 26 26 26 26 26 26 26 26 25 25 25 25 25 25 25 24 23 23 22 22 22 22 21 21 21 21 21 21 21 22 21 21 21 20 20 20 20 19 20 19 19
28 26 26 26 26 26 26 26 26 25 25 25 25 25 25 24 24 24 23 23 22 22 22 21 21 21 21 21 21 21 21 21 21 21 21 21 21 20 20 19 19 19 19
28 26 25 26 26 25 25 25 25 25 25 25 25 25 25 24 24 24 23 23 22 22 21 21 21 21 21 21 21 21 21 21 21 20 20 21 20 20 19 19 19 19 19
27 26 25 25 26 25 25 25 25 25 25 24 24 24 24 24 24 24 23 22 22 21 21 21 21 21 20 20 20 20 20 20 20 20 20 20 20 20 20 19 19 19 19
26 26 26 25 25 25 24 24 24 25 24 24 24 24 24 24 24 23 23 22 22 21 21 21 21 20 20 20 20 20 20 20 20 20 20 20 20 20 20 19 19 19 19
26 26 26 25 24 24 24 24 24 24 24 24 24 24 24 23 23 23 23 22 21 21 21 21 21 20 20 20 20 20 20 20 20 20 20 21 20 20 20 20 19 19 19
26 25 25 24 24 24 24 23 24 24 24 24 23 23 23 23 23 23 23 22 21 21 20 20 20 20 20 20 20 20 20 20 19 20 21 21 20 19 19 19 19 19 19
26 25 25 24 24 24 23 23 23 24 24 23 23 23 23 23 23 22 22 22 21 21 20 20 20 20 20 20 20 20 20 20 19 19 20 21 21 19 19 20 19 19 19
25 25 25 24 24 24 23 23 23 23 23 23 23 23 23 23 22 22 22 22 21 21 20 20 20 20 20 20 20 20 20 20 20 19 19 20 21 19 19 20 19 19 18
25 24 24 24 23 23 22 22 22 22 22 23 22 22 22 22 22 22 21 21 21 21 20 20 20 20 20 20 20 20 20 20 20 19 20 20 19 19 19 20 19 19 19
25 24 23 23 23 22 22 22 21 22 22 22 22 21 21 21 21 21 21 21 21 21 20 20 20 20 19 20 20 20 20 20 20 20 21 20 19 19 20 19 19 19 19
24 24 24 23 23 22 21 21 21 21 21 21 21 21 21 21 21 21 21 21 21 21 20 20 20 20 19 19 20 20 20 20 20 20 20 20 20 20 19 19 19 19 19
26 24 24 23 22 22 21 21 21 21 21 21 21 21 21 21 21 21 21 21 21 20 20 19 19 19 19 19 20 20 20 20 20 19 20 20 21 20 20 19 19 19 18
27 25 24 23 22 22 22 21 21 21 21 21 21 21 20 21 20 21 21 21 21 21 20 20 20 20 19 20 20 19 20 20 19 19 19 19 20 20 20 19 19 18 18
26 25 25 24 23 23 22 21 21 21 22 22 21 21 21 20 21 21 21 21 22 21 21 20 20 20 20 20 21 20 20 20 19 19 20 19 20 20 19 19 19 18 18
24 23 22 22 22 21 21 22 21 21 21 21 21 21 21 21 21 21 22 21 22 22 21 21 20 20 20 21 21 21 20 20 20 20 19 19 19 20 19 19 19 18 18
21 21 21 20 20 21 20 21 20 19 21 21 21 21 21 21 21 21 22 22 22 22 22 21 21 20 20 21 21 21 21 20 19 19 19 19 19 19 19 19 19 18 17
20 20 20 19 19 19 19 18 18 20 20 22 21 22 22 21 21 22 22 22 23 22 22 21 21 21 21 21 21 20 20 20 19 19 18 18 18 18 18 18 18 18 17
19 19 19 19 18 18 18 19 19 20 20 21 21 22 22 22 21 22 22 22 23 22 22 21 21 21 21 21 20 20 20 19 19 19 18 18 18 18 18 18 18 17 16
18 17 17 17 17 17 17 17 18 19 20 20 21 21 21 21 22 22 22 22 22 22 21 21 21 21 21 21 20 20 19 19 19 18 18 18 18 17 17 17 17 17 16
17 16 16 15 15 15 15 15 15 15 17 18 19 19 20 21 22 22 22 22 22 22 22 20 20 21 20 20 20 19 19 19 19 19 18 18 17 17 17 17 17 17 16
16 15 14 14 13 13 13 13 13 13 14 15 16 17 18 19 19 21 22 22 22 21 21 21 20 19 19 20 19 18 16 16 17 18 18 18 18 17 16 16 17 17 16
14 13 13 12 12 11 11 11 11 13 14 13 14 15 16 17 17 18 21 22 21 21 19 22 21 20 19 19 20 18 15 15 14 17 17 17 17 17 16 16 16 16 16
12 12 12 11 10 9 9 8 8 8 8 9 9 10 13 15 16 16 17 19 21 21 20 19 18 19 20 18 17 20 19 18 14 14 16 16 16 17 16 16 16 16 16
12 11 10 9 8 7 7 6 6 6 6 7 7 7 10 13 14 14 15 16 18 20 20 19 19 20 19 17 18 18 18 18 18 14 14 14 16 16 17 16 16 16 16
10 9 9 7 6 5 5 4 4 4 4 5 5 6 6 7 10 11 12 14 16 18 20 19 19 18 17 17 17 17 17 18 17 15 14 14 15 15 16 16 16 16 15

GFSSE_925_temp_123.txt.gz
Temp
24 26 26 25 25 25 26 27 27 27 27 26 26 25 25 24 24 23 22 22 21 20 20 20 20 20 20 21 21 21 21 21 20 20 20 19 19 19 19 19 19 19 19
27 25 26 25 25 25 25 26 26 26 26 26 26 25 24 24 23 23 22 22 21 20 20 20 20 20 20 20 21 21 21 20 20 20 19 19 19 19 19 19 19 19 19
26 25 25 25 25 25 25 25 25 26 26 25 25 25 24 24 23 23 22 22 21 21 21 21 21 20 20 20 21 21 21 20 19 20 19 19 19 19 19 19 19 19 19
27 26 25 24 25 25 25 24 25 25 25 25 25 25 24 24 24 23 22 21 21 21 21 21 20 20 20 20 21 21 21 20 20 19 19 19 19 19 19 19 19 19 19
26 26 25 25 24 25 24 24 24 24 25 24 24 24 24 24 24 23 22 22 21 21 20 20 20 20 20 20 20 21 20 19 19 19 20 20 20 20 20 20 20 19 19
26 25 25 25 25 25 24 24 24 24 24 24 24 24 24 23 23 23 22 22 21 21 21 21 20 20 20 20 20 21 20 19 19 20 20 20 20 21 21 20 20 19 19
26 25 25 25 25 25 24 24 24 24 24 24 24 24 23 23 23 23 22 22 21 21 21 20 20 20 20 20 20 20 20 19 20 20 20 20 21 20 20 19 19 19 19
26 25 24 24 24 24 23 24 24 24 23 23 23 23 23 23 23 23 22 22 21 20 20 20 20 20 20 20 20 20 20 20 19 19 20 20 20 20 20 19 19 19 19
25 25 25 24 24 23 23 23 23 23 23 23 23 23 23 23 22 22 22 22 21 20 20 20 20 20 20 20 20 20 20 20 19 19 20 20 19 20 20 20 19 19 19
24 24 24 24 23 22 23 23 23 23 23 23 23 23 23 23 22 22 22 21 21 21 20 20 20 20 20 20 19 20 20 20 19 20 19 19 19 20 19 19 19 19 19
23 23 23 23 23 22 22 22 22 23 23 22 22 22 22 22 22 21 21 21 21 21 20 20 20 20 20 20 19 19 20 20 19 20 20 20 20 19 19 19 19 19 19
23 23 23 23 23 22 22 22 21 21 22 22 21 20 20 20 21 21 21 21 21 21 20 20 20 20 19 19 19 19 20 20 19 19 20 21 20 20 20 19 19 19 19
23 23 23 23 23 22 22 21 21 21 20 20 20 20 20 20 20 20 20 20 20 20 19 19 19 19 19 19 19 19 19 20 20 19 20 20 20 20 20 20 20 19 19
24 24 25 23 22 22 21 21 21 20 20 20 20 20 20 19 19 20 20 20 19 19 19 19 19 19 19 19 19 19 19 19 20 20 20 20 21 20 19 20 19 19 19
22 22 23 22 20 21 20 20 20 20 20 21 20 20 20 19 19 19 20 20 19 19 19 19 19 19 19 19 19 19 19 19 19 20 20 19 20 20 19 19 19 19 18
20 19 18 18 19 19 19 19 19 19 20 19 19 18 18 19 20 20 20 20 20 20 19 19 19 19 19 19 19 19 19 19 19 19 19 19 19 19 19 19 19 19 19
18 18 18 18 18 18 18 18 18 17 18 17 17 17 17 18 19 20 20 20 20 20 19 19 18 18 18 18 18 19 19 19 19 19 19 19 19 19 19 19 19 19 19
17 17 17 17 18 18 17 17 17 17 16 16 16 16 16 17 18 18 18 18 19 20 20 20 19 18 18 18 18 18 18 19 19 19 19 19 19 19 19 19 19 19 19
14 14 15 15 16 16 17 17 17 16 16 15 15 15 16 17 18 18 17 18 16 17 19 20 18 18 17 17 17 18 19 19 19 19 19 19 19 19 19 19 19 18 18
12 12 13 13 14 15 16 16 17 16 15 14 15 15 14 14 15 16 16 18 18 17 16 18 19 18 18 18 17 17 19 19 19 19 19 19 19 19 18 18 18 18 18
10 11 10 11 11 13 14 14 15 14 15 14 13 13 13 14 14 14 13 14 14 14 15 16 19 18 17 18 16 16 16 16 18 19 18 18 18 18 18 18 18 18 18
7 7 7 7 7 8 9 9 10 10 11 12 12 12 12 12 12 12 13 13 12 14 16 15 16 17 17 18 17 15 16 16 16 16 17 18 18 18 18 18 18 17 17
5 5 5 5 5 4 5 7 9 10 10 9 9 8 8 9 9 10 10 10 11 11 12 14 16 17 17 16 17 16 14 15 14 16 16 17 17 17 18 18 18 17 17
4 4 4 4 3 3 4 4 4 4 3 5 5 6 7 7 7 7 9 9 9 10 11 12 15 16 16 15 15 15 15 15 14 14 16 15 16 16 17 17 17 17 17
3 3 3 3 2 2 2 2 2 2 2 3 3 4 5 6 5 6 5 6 7 8 9 10 12 14 15 15 16 15 15 14 14 14 15 15 15 15 15 16 17 17 17
2 2 2 2 1 1 1 1 0 0 1 1 1 1 2 3 4 4 4 4 4 5 6 7 9 11 13 15 15 16 16 15 15 15 14 14 15 15 15 15 15 16 16